GFSFLT2_250_spd_144.txt.gz
Wind_Speed
41 43 46 47 48 48 49 49 48 49 48 49 50 46 44 43 43 43 42 39 39 38 40 41 40 40 39 38 36 31 33 30
46 47 47 44 44 47 48 49 50 52 51 51 49 47 44 47 49 46 42 39 38 39 39 39 40 40 35 29 29 31 24 25
46 46 46 45 46 48 50 50 50 52 53 54 51 50 47 47 49 52 43 42 39 39 39 37 36 34 35 34 29 25 23 24
48 49 51 49 51 50 50 53 51 53 53 55 56 54 51 35 39 39 45 48 42 40 36 35 34 35 28 29 27 25 26 30
54 53 54 54 55 55 54 52 51 53 54 58 59 58 51 58 45 41 48 50 47 43 39 36 32 33 40 33 27 32 31 32
56 55 55 55 55 55 58 58 58 60 62 59 63 63 60 59 57 51 51 54 53 50 47 43 40 44 42 37 32 31 40 50
58 57 58 60 61 63 63 63 62 59 56 59 61 69 69 69 68 69 69 64 59 58 58 61 60 52 42 43 41 37 47 49
60 61 61 62 63 64 64 63 63 63 61 57 59 67 73 74 73 72 72 69 65 61 64 64 65 63 57 55 53 50 41 44
61 65 67 68 67 66 65 64 63 64 65 64 59 62 68 71 75 74 75 73 71 69 68 67 68 67 64 61 58 59 55 47
63 65 67 70 72 71 69 69 72 72 72 65 62 59 62 67 69 72 73 73 74 75 74 72 72 72 71 66 69 67 71 65
70 72 74 76 75 73 74 74 73 72 72 72 68 63 62 65 67 69 71 71 74 77 77 77 78 78 76 75 75 77 78 77
72 74 77 76 74 75 75 75 76 76 72 71 69 70 69 67 67 70 72 74 74 75 76 79 79 81 81 82 82 84 82 80
77 78 79 79 79 78 79 80 80 81 78 76 74 73 75 79 77 76 75 78 78 79 78 80 79 82 85 88 88 89 89 85
83 84 82 82 82 83 84 84 83 82 82 82 80 81 81 81 81 80 78 75 78 81 83 84 84 86 86 87 92 92 92 91
80 79 80 82 84 86 88 89 89 89 88 89 86 87 85 85 86 86 84 82 81 82 86 88 90 88 90 94 95 94 97 95
81 81 83 87 90 92 91 91 93 93 93 93 92 90 91 92 91 92 91 90 88 88 88 90 91 94 92 92 98 99 102 103
89 87 89 92 95 97 97 96 97 97 99 97 96 95 94 92 91 92 92 91 91 90 92 91 92 95 96 96 96 99 105 104
99 99 102 101 101 102 102 102 103 103 99 94 93 92 89 89 90 91 92 92 93 95 98 100 101 99 98 100 100 99 101 103
113 115 114 107 105 104 107 108 107 96 88 83 83 80 82 84 87 88 87 87 88 91 95 99 100 99 99 98 100 101 102 101
114 113 114 113 111 108 105 97 83 80 74 70 72 74 78 80 80 75 72 73 77 81 84 87 89 92 94 96 100 100 101 102

GFSFLT2_250_spd_147.txt.gz
Wind_Speed
38 38 38 38 41 43 44 43 43 44 47 47 47 48 47 47 45 42 37 36 38 38 36 35 35 34 34 31 32 28 26 26
38 39 40 43 43 43 44 45 46 46 48 48 49 52 50 48 47 45 44 43 38 41 39 37 38 38 36 34 28 25 28 32
43 43 44 46 45 46 46 50 49 48 48 49 51 50 50 53 52 49 48 47 46 39 41 36 38 40 36 35 33 34 34 31
42 45 48 50 52 51 52 52 53 54 53 51 49 48 49 52 53 56 51 43 41 44 43 43 40 37 35 31 28 31 30 34
42 43 46 51 54 56 57 55 56 56 58 56 56 59 59 61 58 56 59 51 47 47 49 43 38 34 35 35 28 40 35 37
46 46 48 53 57 61 61 59 59 61 62 62 61 62 62 56 56 55 57 60 58 57 56 52 46 41 39 41 33 31 36 41
52 50 50 51 52 55 59 62 63 64 66 65 64 64 64 66 60 55 55 59 67 65 62 60 62 63 56 50 46 44 49 45
54 54 55 55 54 55 58 59 61 61 62 65 65 64 64 65 65 64 62 60 62 71 74 72 72 69 67 61 60 51 57 55
61 61 60 61 62 64 66 67 67 66 65 67 68 67 68 70 70 69 64 61 63 65 71 80 80 74 70 69 71 72 72 70
68 68 67 69 73 76 75 73 72 74 75 75 74 73 71 69 67 68 66 62 63 64 67 70 70 78 78 77 76 77 75 71
72 73 75 77 79 76 76 76 76 76 77 79 78 75 75 74 73 72 70 69 66 64 64 67 70 70 76 83 82 81 79 79
76 80 81 80 78 79 78 78 79 79 79 78 77 78 80 80 77 75 75 74 73 72 69 69 69 71 72 76 86 86 84 83
85 87 86 86 85 79 75 75 74 74 76 79 81 83 83 83 85 83 81 80 78 77 79 77 75 74 76 77 78 86 89 88
90 91 91 90 84 79 76 74 76 82 86 88 86 86 86 89 90 90 88 88 87 87 86 84 80 78 77 80 82 82 84 92
95 97 94 90 80 79 82 89 91 100 99 97 94 95 97 97 96 96 93 91 94 90 91 90 87 84 80 81 83 85 87 88
96 98 98 92 87 88 91 100 105 114 111 100 94 94 96 98 98 99 100 97 96 97 97 95 92 93 89 85 85 85 88 91
95 93 86 85 86 98 103 113 118 121 108 101 97 96 97 95 97 100 100 99 99 96 96 98 97 97 95 93 91 90 90 93
82 91 86 94 100 112 118 124 125 114 100 96 96 94 90 88 88 88 86 86 86 88 91 94 93 96 96 95 92 93 93 94
97 96 101 114 117 126 131 129 107 92 90 89 87 84 80 76 76 76 75 77 80 81 84 87 87 90 92 93 96 96 93 94
105 108 112 120 124 132 128 100 91 86 84 81 76 73 69 69 71 71 71 73 74 76 79 81 84 84 87 92 93 92 92 93

GFSFLT2_250_spd_153.txt.gz
Wind_Speed
46 41 38 38 39 40 39 40 38 38 37 37 36 39 40 40 39 37 39 37 37 38 33 33 36 37 38 38 38 39 36 34
40 40 37 39 41 43 43 39 36 36 39 42 41 41 41 41 43 44 44 43 41 39 39 38 38 35 38 41 43 40 40 38
40 38 40 40 40 38 37 39 39 40 41 41 42 45 46 46 49 48 49 49 49 47 46 45 45 44 41 40 42 45 43 38
40 41 40 42 40 42 43 42 42 43 45 46 45 44 44 46 50 51 53 53 53 53 52 49 47 44 46 42 40 41 43 44
42 41 42 43 46 45 45 45 46 47 46 43 42 42 45 46 48 49 50 52 53 57 56 58 55 51 49 49 47 44 45 44
45 42 46 48 49 49 49 49 47 48 49 50 53 53 51 51 53 55 55 55 56 55 57 59 60 59 57 54 50 51 49 46
46 48 47 50 52 55 57 56 57 55 56 57 55 58 59 61 63 62 57 60 58 58 59 59 59 60 60 59 56 55 56 56
47 48 51 54 56 60 60 59 59 61 62 63 64 66 68 70 70 67 67 64 64 63 63 63 62 63 62 62 61 60 61 59
54 56 57 59 60 62 64 65 64 64 64 66 68 70 73 73 73 72 72 72 70 66 66 67 65 65 64 64 65 65 64 66
54 55 56 57 58 59 62 65 67 70 72 72 73 74 75 75 73 73 73 72 69 68 66 65 62 66 66 64 63 67 68 68
55 56 56 59 60 63 65 64 69 73 75 76 78 79 77 76 75 72 68 66 60 65 63 65 66 70 69 72 73 71 72 72
60 62 66 65 65 68 71 75 77 77 77 82 85 85 80 77 71 60 59 63 65 72 78 77 76 84 87 81 84 83 75 76
64 67 65 68 72 75 78 81 80 83 85 87 85 81 79 72 71 73 71 76 75 81 89 96 98 96 93 95 94 93 85 81
70 71 72 73 74 78 83 85 86 86 82 83 78 74 74 72 76 77 80 83 90 100 100 100 104 100 101 98 103 97 94 91
72 75 76 78 80 82 84 85 87 84 82 75 71 70 75 76 80 86 91 97 106 109 108 105 105 106 104 102 97 95 96 94
77 77 79 81 84 84 86 84 84 81 80 76 75 78 87 88 89 99 104 109 110 109 104 102 101 92 86 87 87 91 92 94
80 82 88 86 85 88 88 87 82 88 89 88 91 88 94 96 104 110 110 112 113 97 91 86 83 80 77 79 84 88 94 92
90 90 95 95 95 93 85 84 87 96 93 100 104 106 109 112 115 118 119 115 91 81 81 80 79 75 73 77 80 84 94 98
97 97 94 93 95 89 86 94 93 96 97 106 110 114 116 118 124 123 124 98 85 80 78 75 76 76 75 77 78 79 83 91
98 99 100 97 86 90 92 95 96 99 110 121 125 119 124 127 128 123 99 90 83 77 74 76 76 74 72 75 77 76 76 77

GFSFLT2_250_spd_159.txt.gz
Wind_Speed
35 39 35 32 33 35 36 37 36 37 37 43 42 41 40 38 38 38 39 40 41 42 42 41 42 42 41 40 38 37 36 37
34 36 36 35 34 34 35 35 37 39 41 41 43 42 43 43 41 41 40 39 43 43 43 45 45 45 45 47 46 44 43 42
33 36 34 34 34 37 39 39 42 43 44 44 44 43 42 41 41 43 43 44 44 45 45 46 50 50 52 51 50 50 50 50
38 38 38 36 39 42 42 43 41 42 44 40 39 42 43 44 47 48 49 51 51 52 54 53 52 53 54 55 55 54 53 53
39 41 45 42 43 42 42 43 41 42 43 42 47 49 50 51 54 54 55 54 54 56 57 59 58 60 58 57 57 56 56 56
44 47 49 47 45 44 45 46 44 44 46 51 54 56 56 55 55 55 55 58 60 60 62 63 63 61 59 59 62 61 61 61
50 50 50 49 48 47 45 47 49 52 53 54 55 53 52 54 54 52 52 52 55 58 58 60 63 64 64 66 67 67 67 64
53 53 52 51 50 50 47 48 51 54 54 56 54 54 56 57 57 60 60 61 63 64 66 70 69 69 70 69 70 69 70 67
53 55 54 52 50 49 48 46 49 53 55 55 56 58 58 60 61 62 65 65 67 68 71 73 72 71 71 75 73 72 73 74
54 52 51 49 48 48 48 51 50 52 55 58 61 62 63 64 66 68 68 72 71 75 78 79 81 76 72 71 71 72 73 73
53 53 53 51 53 54 56 57 58 59 59 61 61 66 67 69 71 73 76 76 78 79 82 82 79 75 66 65 68 71 73 74
53 55 57 57 58 60 63 65 64 67 68 70 70 73 75 77 76 79 81 82 83 87 83 84 77 62 65 63 62 68 70 72
59 61 60 59 62 63 67 70 71 73 75 74 75 78 78 80 81 84 85 86 86 84 81 77 70 73 69 72 77 69 67 76
66 68 69 65 65 69 71 72 72 76 79 81 83 84 84 86 87 87 85 78 73 75 84 84 85 89 84 80 87 89 84 91
65 65 67 69 73 74 77 75 79 82 83 87 89 93 91 91 89 87 87 79 84 81 82 81 78 82 83 90 94 97 101 98
76 75 74 76 76 73 76 79 85 88 90 92 95 89 92 95 93 89 89 89 87 90 93 93 89 90 98 104 111 107 108 111
79 79 79 80 79 79 84 83 87 88 93 95 95 95 94 88 91 90 91 95 95 97 102 104 98 98 114 107 108 114 119 112
83 83 84 86 88 86 88 89 95 99 101 102 97 100 96 98 99 96 96 98 97 106 109 110 106 112 112 111 116 120 113 102
87 91 91 90 93 88 90 94 96 103 106 111 98 101 97 98 104 101 99 105 109 114 112 114 108 114 119 117 115 109 98 93
95 95 93 96 97 99 102 108 108 107 111 104 102 102 96 105 104 105 112 111 110 115 116 115 123 121 116 114 109 101 87 81

GFSFLT2_250_spd_162.txt.gz
Wind_Speed
41 42 40 39 38 38 32 30 31 33 35 35 38 39 41 41 40 41 41 40 40 40 39 40 42 40 41 42 42 42 42 42
43 41 42 42 34 34 31 30 35 39 39 40 40 42 42 42 43 43 43 41 40 40 43 42 44 44 44 44 45 47 47 46
44 42 41 41 36 38 37 38 40 40 39 42 42 41 42 42 38 41 44 45 43 44 46 47 50 50 49 51 50 50 51 51
44 41 43 41 40 39 41 43 45 44 41 42 42 42 42 42 45 49 50 50 53 54 54 53 53 54 55 58 54 54 55 57
44 44 43 43 43 44 44 46 46 45 44 45 46 45 46 50 54 55 56 57 54 53 53 54 53 56 55 56 58 55 54 58
47 45 45 45 44 48 50 49 50 49 49 49 49 49 52 55 58 58 58 55 51 51 52 54 55 59 60 59 58 57 60 61
48 49 49 49 49 50 50 50 53 50 50 53 52 53 56 58 59 56 56 56 56 58 61 64 68 70 69 66 69 64 61 62
52 53 53 52 50 50 50 53 53 53 52 50 52 55 52 54 57 59 60 61 62 65 68 70 72 74 73 73 74 74 73 71
58 57 55 52 51 51 54 53 53 52 53 55 55 56 57 60 61 63 64 66 68 69 71 73 75 78 78 79 81 80 77 76
56 55 53 54 54 56 55 56 54 54 55 56 55 59 61 62 64 66 68 69 71 72 74 75 76 79 81 81 81 79 77 76
57 57 55 53 53 55 57 58 58 57 59 60 62 64 66 68 68 69 69 71 73 75 76 79 79 81 80 81 78 77 76 70
58 56 56 58 58 59 58 55 56 55 55 58 62 67 69 71 69 65 69 75 80 81 80 82 82 83 83 76 74 68 69 72
58 58 60 59 59 61 59 58 61 61 61 61 64 67 69 75 77 74 74 74 75 78 80 82 83 80 79 78 73 75 82 71
55 56 57 56 56 60 64 64 67 66 68 71 68 72 75 77 80 83 85 89 90 90 90 84 81 81 83 77 83 83 85 87
61 62 66 68 66 68 67 71 76 74 77 76 76 77 79 80 81 86 88 92 90 96 96 90 89 89 93 92 90 91 93 94
72 73 76 72 70 74 76 77 77 80 80 85 86 87 83 83 86 92 98 99 97 101 101 97 99 93 101 100 98 97 99 102
74 74 76 77 81 81 84 85 82 84 87 90 86 86 91 94 96 101 101 100 102 106 102 97 105 104 105 106 103 106 108 108
77 82 83 82 87 87 89 84 87 89 91 95 90 96 99 99 100 99 102 106 106 108 108 104 105 110 110 107 107 111 113 108
86 90 91 90 95 94 91 88 87 89 92 91 97 105 103 99 99 103 108 108 113 110 113 104 116 111 111 110 110 111 114 112
86 88 92 93 95 94 94 96 98 96 100 102 98 100 106 104 102 108 110 114 118 114 118 117 110 113 112 112 110 111 114 115

GFSFLT2_250_spd_165.txt.gz
Wind_Speed
37 37 39 37 39 39 38 35 29 28 29 31 32 31 33 36 37 37 38 39 39 39 39 40 40 38 40 41 41 44 45 41
35 37 38 37 39 40 39 37 33 33 33 38 36 36 37 36 38 39 39 39 36 38 43 43 44 45 46 49 49 50 49 46
37 44 46 47 43 38 38 37 38 38 38 40 39 41 40 39 40 40 41 40 45 46 46 46 52 54 52 52 54 54 51 46
42 44 41 39 37 41 42 39 35 40 41 43 44 44 45 44 46 45 45 46 49 52 54 56 55 54 52 53 51 49 47 49
37 45 46 42 41 44 44 43 42 40 42 42 45 45 48 46 48 48 50 53 55 57 57 56 55 53 53 54 55 57 59 59
40 45 46 41 43 44 46 46 47 44 43 45 48 48 49 50 52 50 50 55 55 54 58 56 56 54 57 60 63 65 66 66
42 43 43 46 50 50 50 52 51 51 48 48 50 52 53 54 53 54 56 56 55 58 58 59 59 62 64 67 69 71 72 73
43 43 44 51 53 52 54 55 55 50 52 53 55 55 54 53 54 55 56 57 58 61 63 65 66 69 71 72 73 76 78 79
47 49 52 55 57 57 54 52 49 51 51 54 55 55 56 55 55 58 59 60 63 64 66 67 69 70 70 72 70 74 76 77
50 50 52 53 55 54 52 50 49 52 54 54 57 56 58 57 57 58 60 61 61 63 66 67 67 64 66 66 72 71 68 69
47 51 51 51 51 51 49 50 53 54 55 53 55 56 58 58 58 58 59 64 64 65 66 68 72 72 73 75 75 72 75 69
52 51 53 55 51 50 51 54 56 56 54 55 59 59 59 61 62 66 67 68 67 69 69 70 72 74 79 85 88 86 79 79
54 51 56 60 59 57 53 49 53 55 57 59 64 66 68 71 72 71 70 71 75 73 75 70 75 78 87 86 89 87 87 81
53 52 54 63 62 58 58 59 60 60 64 65 67 68 70 71 72 71 73 76 81 77 77 78 84 90 91 94 91 92 96 93
54 57 58 60 66 66 63 64 66 67 67 68 70 72 74 73 75 79 83 87 88 82 85 89 92 93 93 90 91 91 94 93
57 61 62 58 61 68 70 73 76 79 81 81 81 83 83 88 92 95 93 94 94 91 91 96 95 94 96 97 99 97 101 103
67 67 69 67 65 72 77 77 75 80 84 85 87 90 94 94 95 92 94 94 95 98 98 99 105 107 109 105 106 106 106 107
72 71 70 75 76 77 80 80 84 86 91 89 93 93 92 96 97 99 102 100 101 104 100 101 102 105 107 106 110 111 109 104
77 74 70 78 83 85 88 87 88 90 89 94 96 96 96 98 99 98 101 103 106 107 110 111 117 112 115 111 113 117 109 106
74 80 77 76 78 81 84 86 84 90 95 101 101 99 98 103 110 112 113 112 114 109 112 109 111 114 117 116 119 115 110 108